KUIPER-00032

导读

KUIPER-00032是美国亚马逊“柯伊伯项目”下的低轨宽带通信卫星,于2025年4月28日发射升空,是柯伊伯星座3236颗卫星组网计划中的组成部分。该卫星运行于近地轨道,依托Ka波段通信技术,旨在为全球提供高速低延迟的卫星宽带服务,可为偏远地区网络覆盖、企业宽带、无线回程等场景提供支持,助力实现全球无缝互联网接入,是美国私营低轨星座建设的重要节点。

Basic Information
目录编号:
63745
目录名称:
KUIPER-00032
国际标识:
2025-088X
轨道中心:
EARTH
卫星名称:
KUIPER-00032
卫星全名:
KUIPER-00032
卫星状态:
在轨 (已飞行411 天)
发射日期:
2025-04-28 UTC
国别 :
美国 (US)
星等 :
--
Orbit Information
数据来源 国际轨道数据
星历时间: 2026-06-12T08:52:03+0800
1天前
查看轨道信息
半长轴: 6824.04km
偏心率: 0.0004311
轨道倾角: 51.867°
近地点辐角 98.036°
升交点赤经 287.016°
平近点角 262.112°
近地点: 442.961km
远地点: 448.845km
周期: 93.502分钟
每日圈数: 15.400699
Detailed Information
使用方式:
暂无
2D Orbit Map
3D Orbit Map
Orbit Altitude Analysis Chart
Orbit Inclination Analysis Chart
Orbit Comprehensive Analysis Chart
View Comprehensive Chart